Regional Weather Roundup
Issued by NWS Jackson, KY

Home | Current Version | Previous Version | Text Only | Print | Product List | Glossary Off
Versions: 1 2 3 4 5 6 7 8 9 10 11 12 13 14 15 16 17 18 19 20 21 22 23 24 25 26 27 28 29 30 31 32 33 34 35 36 37 38 39 40 41 42 43 44 45 46 47 48 49 50

000
ASUS43 KJKL 290611
RWRJKL

EAST KENTUCKY HOURLY WEATHER ROUNDUP
NATIONAL WEATHER SERVICE JACKSON KY
100 AM EST THU JAN 29 2015

NOTE: "FAIR" INDICATES FEW OR NO CLOUDS BELOW 12,000 FEET WITH
NO SIGNIFICANT WEATHER AND/OR OBSTRUCTIONS TO VISIBILITY.

* THESE REPORTS ARE NOT UNDER NWS QUALITY CONTROL AND MAY NOT
  REPORT WEATHER SUCH AS PRECIPITATION AND FOG.

KYZ079-080-083-085-087-088-110-112-115-119-120-290700
...EASTERN KENTUCKY...

CITY           SKY/WX    TMP DP  RH WIND       PRES   REMARKS
JACKSON        MOCLDY    32  19  58 SE3       30.15F
6HR MIN TEMP:  29; 6HR MAX TEMP:  33;

LONDON         PTCLDY    28  21  75 SE5       30.15F WCI  23
6HR MIN TEMP:  27; 6HR MAX TEMP:  34;

SOMERSET*      CLOUDY    30  19  64 CALM      30.16F
MONTICELLO*    PTCLDY    37  18  46 S8        30.17F WCI  31
6HR MIN TEMP:  27; 6HR MAX TEMP:  38;

MIDDLESBORO*   PTCLDY    32  23  69 SW5       30.23S WCI  27
6HR MIN TEMP:  26; 6HR MAX TEMP:  32;

HARLAN APT*    CLEAR     34  19  55 E3        30.19F
BLACK MTN*       N/A     30   9  40 S15         N/A  WCI  19
PIKEVILLE APT* CLEAR     32  19  59 SE8       30.16F WCI  25
BIG SANDY*     PTCLDY    30  21  68 CALM      30.17F
6HR MIN TEMP:  26; 6HR MAX TEMP:  31;

MOREHEAD APT*  MOCLDY    30  19  64 SE7       30.16F WCI  23
$$

KYZ035-036-041-042-044-050-067-078-099-290700
...CENTRAL KENTUCKY...

CITY           SKY/WX    TMP DP  RH WIND       PRES   REMARKS
MT STERLING*   MOCLDY    32  23  69 S8        30.13F WCI  25
FLEMING/MASON* MOCLDY    30  22  71 SE7       30.14F WCI  23
DANVILLE*      CLOUDY    34  19  55 SW6       30.13F WCI  29
RICHMOND*      CLOUDY    37  18  44 S9        30.12F WCI  31
LEXINGTON      CLOUDY    33  20  58 S13       30.12F WCI  24
6HR MIN TEMP:  31; 6HR MAX TEMP:  34;

FRANKFORT      MOCLDY    33  20  58 SE9       30.10F WCI  25
6HR MIN TEMP:  29; 6HR MAX TEMP:  33;

$$

KYZ091>093-OHZ055-061-077-WVZ005-015-034-035-042-290700
...SOUTHERN OHIO/WEST VIRGINIA...

CITY           SKY/WX    TMP DP  RH WIND       PRES   REMARKS
COVINGTON      CLOUDY    31  20  63 SE12      30.10F WCI  22
COLUMBUS       CLOUDY    25  14  63 SE12      30.15F WCI  14
DAYTON         CLOUDY    30  20  66 SE16      30.08F WCI  19
WILMINGTON     MOCLDY    28  18  66 SE10      30.11F WCI  19
HUNTINGTON     PTCLDY    26  19  74 E5        30.18F WCI  20
CHARLESTON     PTCLDY    22  18  85 CALM      30.21F
PINEVILLE*     CLEAR     23  23  99 MISG      30.25F
BECKLEY        PTCLDY    27  12  53 SE10      30.17F WCI  17
BLUEFIELD      PTCLDY    28  14  55 VRB3      30.18F
$$

VAZ002-007-008-TNZ017-027-036-066-071-290700
...SOUTHWEST VIRGINIA/EAST TENNESSEE...

CITY           SKY/WX    TMP DP  RH WIND       PRES   REMARKS
WISE*          CLEAR     34  10  37 SE8       30.16F WCI  27
JONESVILLE*    CLEAR     25  23  93 CALM      30.24F
ABINGDON*      CLEAR     28  21  74 E5        30.22R WCI  23
BRISTOL        PTCLDY    23  20  88 CALM      30.23F
KNOXVILLE      MOCLDY    29  22  75 W3        30.24R
OAK RIDGE      CLEAR     29  23  78 CALM      30.26R
CROSSVILLE     CLEAR     35  11  36 S6        30.18F WCI  30
NASHVILLE      MOCLDY    44  28  53 S12       30.14S
$$

...KEY TO REMARKS...
VSB - VISIBILITY IN MILES
WCI - WIND CHILL INDEX
HX  - HEAT INDEX

$$



USA.gov is the U.S. government's official web portal to all federal, state and local government web resources and services.